Location: Newark
(27.9675°N, 86.8869°E)
Time: 01:02:10
(UTC+00:00)

Courier 1B Rocket - Pass Details

Date: 20 October 2019
Orbit: 920 x 1202 km, 28.2° (Epoch: 21 November)

Event Time Altitude Azimuth Distance (km) Brightness Sun altitude
Rises 20:47:14 0° 246° (WSW) 3,600 - -46.5°
Reaches altitude 10° 20:49:54 10° 243° (WSW) 2,632 - -45.9°
Maximum altitude 20:56:06 62° 164° (SSE) 1,020 - -44.6°
Exits shadow 21:00:28 20° 88° (E) 1,994 7.1 -43.7°
Drops below altitude 10° 21:02:15 10° 84° (E) 2,613 7.8 -43.3°
Sets 21:04:54 0° 81° (E) 3,572 8.8 -42.7°
